KOREASAT 116

Last updated on Thu Oct 30 2025 00:02:51 GMT+0000 (Coordinated Universal Time)

1 45920U 20048A 25301.63785015 -.00000352 00000+0 00000+0 0 9999 2 45920 0.0127 282.0057 0000816 271.1716 189.8850 1.00271834 19315
UTC large
Height (km)
Speed (km/s)
/
Latitude / Longitude
Inclination (degrees)
Orbital Period (minutes)
Azimuth
Elevation
Range (km)
Doppler Factor

Next 0 passes for location: London (51.5072 / 0.1276)

Sorry there are no passes over London.